Location: *
(29.1167°S, 130.0000°E)
Time: 21:36:43
(UTC+00:00)

Cosmos 2297 Rocket - Pass Details

Date: 21 July 2019
Orbit: 838 x 844 km, 71.0° (Epoch: 19 August)

Event Time Altitude Azimuth Distance (km) Brightness Sun altitude
Rises 11:01:14 0° 349° (NNW) 3,381 5.6 -29.9°
Reaches altitude 10° 11:03:41 10° 351° (N) 2,452 4.8 -30.5°
Enters shadow 11:05:59 26° 356° (N) 1,617 3.7 -31.0°
